KC1TEM-13 Weather Reports


time (UTC)temp
C
wind
direction
speed
KPH
gust
KPH
rain 1hr
cm
rain 24hr
cm
rain mn
cm
humidity
%
barometer
mb
20260507214700 17 3 0.0 6.4 0.00 0.05 0.05 28 1005.8
20260507214156 17 25 3.2 6.4 0.00 0.05 0.05 28 1005.7
20260507213652 18 359 3.2 6.4 0.00 0.05 0.05 26 1005.5
20260507213150 17 99 0.0 3.2 0.00 0.05 0.05 27 1005.4
20260507212646 17 328 1.6 3.2 0.00 0.05 0.05 28 1005.5
20260507212143 17 239 3.2 4.8 0.00 0.05 0.05 27 1005.6
20260507211640 18 325 3.2 4.8 0.00 0.05 0.05 26 1005.6
20260507211135 18 2 3.2 4.8 0.00 0.05 0.05 26 1005.3
20260507210633 18 355 4.8 6.4 0.00 0.05 0.05 25 1005.5
20260507210129 18 332 3.2 6.4 0.00 0.05 0.05 28 1005.6
20260507205626 18 29 4.8 4.8 0.00 0.05 0.05 26 1005.4
20260507205122 18 17 3.2 4.8 0.00 0.05 0.05 28 1005.6
20260507204619 18 231 3.2 4.8 0.00 0.05 0.05 25 1005.7
20260507204116 18 359 0.0 6.4 0.00 0.05 0.05 25 1005.4
20260507203614 18 20 1.6 9.7 0.00 0.05 0.05 27 1005.5
20260507203111 18 345 4.8 6.4 0.00 0.05 0.05 25 1005.3
20260507202607 18 353 1.6 4.8 0.00 0.05 0.05 28 1005.5
20260507202103 18 62 3.2 6.4 0.00 0.05 0.05 27 1005.5
20260507201559 18 259 4.8 6.4 0.00 0.05 0.05 26 1005.3
20260507201056 18 31 3.2 8.0 0.00 0.05 0.05 25 1005.4
20260507200551 18 93 1.6 4.8 0.00 0.05 0.05 25 1005.6
20260507200047 18 250 4.8 6.4 0.00 0.05 0.05 25 1005.6
20260507195545 18 19 3.2 6.4 0.00 0.05 0.05 26 1005.4
20260507195042 18 336 6.4 6.4 0.00 0.05 0.05 25 1005.5
20260507194538 18 48 0.0 6.4 0.00 0.05 0.05 28 1005.4
20260507194034 18 332 3.2 6.4 0.00 0.05 0.05 27 1005.7
20260507193532 18 261 3.2 4.8 0.00 0.05 0.05 29 1005.7
20260507193029 18 13 3.2 4.8 0.00 0.05 0.05 29 1005.7
20260507192525 18 299 3.2 12.9 0.00 0.05 0.05 26 1005.9
20260507192022 17 349 3.2 6.4 0.00 0.05 0.05 29 1005.9
20260507191517 17 29 4.8 4.8 0.00 0.05 0.05 30 1005.8
20260507191014 18 243 4.8 11.3 0.00 0.05 0.05 27 1005.8
20260507190512 17 343 4.8 6.4 0.00 0.05 0.05 30 1005.9
20260507190010 17 338 3.2 6.4 0.00 0.05 0.05 32 1006.1
20260507185508 17 343 8.0 8.0 0.00 0.05 0.05 29 1006.1
20260507185004 18 42 3.2 9.7 0.00 0.05 0.05 28 1006.1
20260507184503 18 353 6.4 6.4 0.00 0.05 0.05 31 1006.1
20260507184000 18 344 6.4 8.0 0.00 0.05 0.05 28 1006.2
20260507183456 18 53 3.2 12.9 0.00 0.05 0.05 29 1006.3
20260507182953 19 168 4.8 6.4 0.00 0.05 0.05 28 1006.3
20260507182449 18 329 4.8 4.8 0.00 0.05 0.05 31 1006.0
20260507181945 18 46 3.2 8.0 0.00 0.05 0.05 29 1006.1
20260507181442 18 348 3.2 6.4 0.00 0.05 0.05 32 1006.3
20260507180938 17 336 3.2 8.0 0.00 0.05 0.05 28 1006.1
20260507180435 18 20 6.4 9.7 0.00 0.05 0.05 29 1006.2
20260507175931 18 1 3.2 6.4 0.00 0.05 0.05 30 1006.1
20260507175428 18 288 1.6 8.0 0.00 0.05 0.05 31 1006.2
20260507174926 17 2 3.2 6.4 0.00 0.05 0.05 29 1006.2
20260507174423 17 337 4.8 9.7 0.00 0.05 0.05 30 1006.3
20260507173920 17 269 1.6 6.4 0.00 0.05 0.05 30 1006.3
20260507173417 17 17 3.2 6.4 0.00 0.05 0.05 29 1006.1
20260507172914 17 36 8.0 8.0 0.00 0.05 0.05 33 1006.3
20260507172411 17 351 3.2 19.3 0.00 0.05 0.05 35 1006.4
20260507171906 18 356 1.6 6.4 0.00 0.05 0.05 36 1006.3
20260507171403 17 62 3.2 8.0 0.00 0.05 0.05 30 1006.3
20260507170900 18 234 3.2 4.8 0.00 0.05 0.05 32 1006.6
20260507170357 18 336 3.2 4.8 0.00 0.05 0.05 30 1006.8
20260507165853 18 294 3.2 6.4 0.00 0.05 0.05 30 1006.9
20260507165349 17 260 3.2 8.0 0.00 0.05 0.05 32 1006.7
20260507164845 18 113 3.2 4.8 0.00 0.05 0.05 36 1006.9
20260507164342 17 231 8.0 8.0 0.00 0.05 0.05 32 1006.7
20260507163840 17 269 0.0 8.0 0.00 0.05 0.05 35 1006.8
20260507163337 17 218 6.4 14.5 0.00 0.05 0.05 35 1006.8
20260507162833 17 17 3.2 6.4 0.00 0.05 0.05 41 1007.1
20260507162329 16 51 3.2 4.8 0.00 0.05 0.05 45 1007.0
20260507161826 16 5 4.8 8.0 0.00 0.05 0.05 43 1007.1
20260507161322 17 329 6.4 6.4 0.00 0.05 0.05 45 1007.1
20260507160819 16 146 1.6 6.4 0.00 0.05 0.05 48 1006.9
20260507160315 16 244 6.4 8.0 0.00 0.05 0.05 45 1007.2
20260507155811 15 274 3.2 4.8 0.00 0.05 0.05 51 1007.3
20260507155307 15 228 3.2 8.0 0.00 0.05 0.05 47 1007.3
20260507154804 16 342 4.8 8.0 0.00 0.05 0.05 47 1007.4
20260507154301 16 341 3.2 3.2 0.00 0.05 0.05 49 1007.3
20260507153758 16 323 0.0 3.2 0.00 0.05 0.05 46 1007.2
20260507153254 15 41 3.2 8.0 0.00 0.05 0.05 51 1007.5
20260507152751 15 239 3.2 4.8 0.00 0.05 0.05 47 1007.5
20260507152248 15 338 4.8 6.4 0.00 0.05 0.05 49 1007.6
20260507151743 15 57 3.2 8.0 0.00 0.05 0.05 47 1007.7
20260507151240 15 300 3.2 8.0 0.00 0.05 0.05 47 1007.6
20260507150737 16 352 1.6 4.8 0.00 0.05 0.05 45 1007.6
20260507150234 16 155 1.6 3.2 0.00 0.05 0.05 46 1007.8
20260507145730 16 250 3.2 6.4 0.00 0.05 0.05 44 1007.8
20260507145226 16 5 3.2 6.4 0.00 0.05 0.05 44 1007.8
20260507144723 16 98 0.0 9.7 0.00 0.05 0.05 41 1008.0
20260507144221 16 16 1.6 8.0 0.00 0.05 0.05 44 1008.0
20260507143717 16 163 0.0 4.8 0.00 0.05 0.05 45 1007.8
20260507143215 17 45 1.6 8.0 0.00 0.05 0.05 44 1007.7
20260507142710 16 337 0.0 4.8 0.00 0.05 0.05 45 1007.7
20260507142207 16 98 4.8 6.4 0.00 0.05 0.05 48 1007.8
20260507141703 16 54 6.4 6.4 0.00 0.05 0.05 47 1007.8
20260507141200 16 337 3.2 6.4 0.00 0.05 0.05 46 1008.0
20260507140657 16 279 3.2 3.2 0.00 0.05 0.05 50 1007.7
20260507140154 16 315 3.2 6.4 0.00 0.05 0.05 48 1007.6
20260507135651 15 239 1.6 3.2 0.00 0.05 0.05 47 1007.6
20260507135149 15 62 3.2 6.4 0.00 0.05 0.05 49 1007.7
20260507134645 15 31 6.4 8.0 0.00 0.05 0.05 47 1007.6
20260507134141 16 229 3.2 6.4 0.00 0.05 0.05 44 1007.8
20260507133637 16 128 1.6 3.2 0.00 0.05 0.05 50 1007.8
20260507133135 15 47 3.2 4.8 0.00 0.05 0.05 55 1008.0
20260507132632 15 43 4.8 4.8 0.00 0.05 0.05 48 1008.0
20260507132128 15 0 4.8 4.8 0.00 0.05 0.05 50 1008.2
20260507131624 14 108 0.0 4.8 0.00 0.05 0.05 52 1008.2
20260507131122 13 36 1.6 4.8 0.00 0.05 0.05 57 1008.0
20260507130619 13 85 3.2 4.8 0.00 0.05 0.05 57 1008.2
20260507130117 13 47 1.6 3.2 0.00 0.05 0.05 56 1008.3
20260507125615 13 224 0.0 4.8 0.00 0.05 0.05 59 1008.3
20260507125112 12 80 1.6 4.8 0.00 0.05 0.05 62 1008.4
20260507124608 12 69 3.2 6.4 0.00 0.05 0.05 64 1008.5
20260507124107 12 48 0.0 4.8 0.00 0.05 0.05 68 1008.5
20260507123604 12 15 1.6 4.8 0.00 0.05 0.05 62 1008.5
20260507123101 12 55 0.0 3.2 0.00 0.05 0.05 65 1008.6
20260507122556 12 31 1.6 3.2 0.00 0.05 0.05 70 1008.3
20260507122052 11 38 3.2 8.0 0.00 0.05 0.05 65 1008.3
20260507121548 11 9 3.2 8.0 0.00 0.05 0.05 64 1008.5
20260507121044 11 17 3.2 3.2 0.00 0.05 0.05 70 1008.4
20260507120540 11 36 3.2 4.8 0.00 0.05 0.05 70 1008.4
20260507120038 11 66 0.0 3.2 0.00 0.05 0.05 71 1008.4
20260507115534 11 30 3.2 3.2 0.00 0.05 0.05 73 1008.2
20260507115030 11 130 0.0 4.8 0.00 0.05 0.05 75 1008.5
20260507114526 10 67 3.2 3.2 0.00 0.05 0.05 75 1008.5
20260507114023 10 20 1.6 4.8 0.00 0.05 0.05 76 1008.2
20260507113520 9 56 0.0 3.2 0.00 0.05 0.05 79 1008.3
20260507113017 9 41 0.0 3.2 0.00 0.05 0.05 81 1008.1
20260507112515 8 61 1.6 3.2 0.00 0.05 0.05 81 1008.1
20260507112012 8 59 3.2 3.2 0.00 0.05 0.05 82 1008.3
20260507111510 8 68 3.2 3.2 0.00 0.05 0.05 82 1008.3
20260507111005 8 96 3.2 3.2 0.00 0.05 0.05 83 1008.6
20260507110502 8 80 0.0 3.2 0.00 0.05 0.05 84 1008.5
20260507105958 8 17 0.0 3.2 0.00 0.05 0.05 83 1008.2
20260507105455 8 89 3.2 3.2 0.00 0.05 0.05 85 1008.1
20260507104951 8 63 0.0 3.2 0.00 0.05 0.05 84 1007.7
20260507104449 8 78 1.6 4.8 0.00 0.05 0.05 83 1007.9
20260507103944 8 56 1.6 3.2 0.00 0.05 0.05 82 1007.7
20260507103441 8 31 1.6 4.8 0.00 0.05 0.05 84 1007.9
20260507102937 8 14 0.0 3.2 0.00 0.05 0.05 83 1007.7
20260507102434 8 53 3.2 3.2 0.00 0.05 0.05 83 1007.7
20260507101931 8 52 0.0 3.2 0.00 0.05 0.05 84 1007.6
20260507101426 8 58 3.2 3.2 0.00 0.05 0.05 84 1007.6
20260507100922 8 20 3.2 4.8 0.00 0.05 0.05 84 1007.9
20260507100420 8 89 0.0 3.2 0.00 0.05 0.05 85 1007.7
20260507095918 8 55 4.8 4.8 0.00 0.05 0.05 85 1007.9
20260507095415 8 29 0.0 3.2 0.00 0.05 0.05 86 1008.0
20260507094912 8 20 3.2 6.4 0.00 0.05 0.05 85 1007.6
20260507094408 8 88 0.0 4.8 0.00 0.05 0.05 86 1007.7
20260507093905 8 5 1.6 3.2 0.00 0.05 0.05 87 1007.9
20260507093404 8 47 0.0 4.8 0.00 0.05 0.05 87 1007.7
20260507092902 8 35 0.0 3.2 0.00 0.05 0.05 88 1007.7
20260507092357 8 81 0.0 3.2 0.00 0.05 0.05 89 1007.8
20260507091854 8 357 3.2 4.8 0.00 0.05 0.05 89 1007.8
20260507091350 8 13 1.6 3.2 0.00 0.05 0.05 90 1007.9
20260507090846 8 53 0.0 3.2 0.00 0.05 0.05 91 1007.8
20260507090343 8 14 1.6 3.2 0.00 0.05 0.05 91 1007.5
20260507085840 8 89 3.2 3.2 0.00 0.05 0.05 91 1007.4
20260507085336 8 22 0.0 1.6 0.00 0.05 0.05 90 1007.5
20260507084834 8 37 0.0 3.2 0.00 0.05 0.05 90 1007.6
20260507084330 8 231 1.6 3.2 0.00 0.05 0.05 89 1007.7
20260507083828 8 58 0.0 3.2 0.00 0.05 0.05 89 1007.3
20260507083324 8 87 0.0 0.0 0.00 0.05 0.05 88 1007.6
20260507082820 8 48 0.0 3.2 0.00 0.05 0.05 88 1007.2
20260507082316 8 55 0.0 3.2 0.05 0.05 0.05 88 1007.5
20260507081814 9 16 1.6 3.2 0.05 0.05 0.05 89 1007.5
20260507081309 9 55 0.0 3.2 0.05 0.05 0.05 87 1007.3
20260507080806 9 40 0.0 1.6 0.05 0.05 0.05 87 1007.3
20260507080302 10 69 3.2 3.2 0.00 0.03 0.03 86 1007.7
20260507075757 10 39 1.6 3.2 0.00 0.03 0.03 85 1007.5
20260507075254 10 5 1.6 3.2 0.00 0.03 0.03 85 1007.8
20260507074750 10 232 4.8 6.4 0.00 0.03 0.03 84 1007.6
20260507074249 10 60 0.0 3.2 0.00 0.03 0.03 86 1007.6
20260507073745 10 78 0.0 4.8 0.00 0.03 0.03 84 1007.0
20260507073241 10 57 0.0 3.2 0.00 0.03 0.03 85 1007.2
20260507072739 10 21 1.6 3.2 0.00 0.03 0.03 84 1007.2
20260507072237 10 48 0.0 4.8 0.00 0.03 0.03 85 1006.9
20260507071734 10 11 3.2 3.2 0.00 0.03 0.03 84 1007.0
20260507071230 10 57 3.2 4.8 0.00 0.03 0.03 84 1007.3
20260507070727 10 55 0.0 4.8 0.00 0.03 0.03 84 1007.2
20260507070224 10 17 0.0 4.8 0.00 0.03 0.03 86 1007.1
20260507065721 10 18 3.2 3.2 0.00 0.03 0.03 86 1006.8
20260507065218 10 13 1.6 4.8 0.00 0.03 0.03 86 1006.9
20260507064715 10 89 0.0 4.8 0.00 0.03 0.03 88 1006.9
20260507064214 10 5 3.2 3.2 0.00 0.03 0.03 88 1006.9
20260507063711 10 46 3.2 3.2 0.00 0.03 0.03 89 1006.9
20260507063207 10 357 1.6 3.2 0.00 0.03 0.03 88 1006.4
20260507062704 10 226 3.2 3.2 0.00 0.03 0.03 87 1006.7
20260507062202 10 0 1.6 3.2 0.00 0.03 0.03 88 1006.4
20260507061700 10 111 0.0 1.6 0.00 0.03 0.03 88 1006.7
20260507061157 10 4 1.6 3.2 0.00 0.03 0.03 89 1006.7
20260507060655 10 359 3.2 4.8 0.00 0.03 0.03 89 1006.8
20260507060151 10 93 1.6 3.2 0.00 0.03 0.03 89 1006.9
20260507055647 10 240 0.0 4.8 0.00 0.03 0.03 90 1006.8
20260507055143 11 0 3.2 3.2 0.00 0.03 0.03 91 1007.1
20260507054639 11 279 1.6 3.2 0.00 0.03 0.03 92 1007.1
20260507054136 11 354 0.0 3.2 0.00 0.03 0.03 92 1007.1
20260507053634 11 349 0.0 3.2 0.00 0.03 0.03 93 1007.2
20260507053132 11 23 1.6 4.8 0.00 0.03 0.03 92 1006.9
20260507052630 11 32 3.2 3.2 0.00 0.03 0.03 92 1007.2
20260507052126 11 58 0.0 3.2 0.00 0.03 0.03 92 1007.4
20260507051624 11 226 0.0 3.2 0.00 0.03 0.03 92 1007.3
20260507051121 11 89 0.0 3.2 0.00 0.03 0.03 92 1007.1
20260507050618 11 177 0.0 3.2 0.00 0.03 0.03 92 1007.0
20260507050114 11 4 3.2 3.2 0.00 0.03 0.03 92 1006.9
20260507045611 11 321 0.0 3.2 0.00 0.03 0.03 93 1006.9
20260507045108 11 82 0.0 1.6 0.00 0.03 0.03 93 1006.9
20260507044604 11 37 0.0 3.2 0.00 0.03 0.03 93 1006.7
20260507044102 11 38 3.2 3.2 0.00 0.03 0.03 94 1006.7
20260507043557 11 238 0.0 3.2 0.00 0.03 0.03 93 1006.9
20260507043055 11 357 0.0 3.2 0.05 0.03 0.03 93 1007.0
20260507042550 11 14 1.6 4.8 0.05 0.03 0.03 92 1007.1
20260507042046 12 5 3.2 3.2 0.05 0.03 0.03 92 1007.3
20260507041543 12 4 0.0 3.2 0.13 0.03 0.03 91 1007.4
20260507041040 12 55 1.6 3.2 0.00 0.00 0.00 91 1007.2
20260507040536 12 320 0.0 3.2 0.00 0.00 0.00 90 1006.9
20260507040032 12 330 3.2 4.8 0.00 0.81 0.81 90 1007.0
20260507035529 13 353 1.6 6.4 0.00 0.81 0.81 91 1006.6
20260507035025 13 336 3.2 6.4 0.00 0.81 0.81 92 1006.8
20260507034522 13 331 1.6 3.2 0.00 0.81 0.81 92 1006.3
20260507034020 13 13 1.6 3.2 0.00 0.81 0.81 92 1006.1
20260507033518 13 340 3.2 4.8 0.00 0.81 0.81 92 1006.1
20260507033015 14 61 1.6 4.8 0.00 0.81 0.81 93 1006.0
20260507032512 15 18 1.6 6.4 0.00 0.81 0.81 94 1006.1
20260507032008 15 348 3.2 3.2 0.13 0.81 0.81 96 1005.7
20260507031504 15 83 0.0 3.2 0.13 0.81 0.81 95 1005.9
20260507031002 15 353 3.2 3.2 0.00 0.79 0.79 95 1005.8
20260507030458 15 129 0.0 4.8 0.00 0.79 0.79 95 1005.8
20260507025955 15 243 0.0 1.6 0.00 0.79 0.79 95 1005.3
20260507025453 15 135 3.2 4.8 0.00 0.79 0.79 94 1005.6
20260507024950 15 203 0.0 3.2 0.00 0.79 0.79 94 1005.7
20260507024448 15 323 4.8 4.8 0.00 0.79 0.79 94 1005.7
20260507023943 15 211 0.0 3.2 0.00 0.79 0.79 94 1005.7
20260507023440 15 93 0.0 3.2 0.00 0.79 0.79 94 1005.7
20260507022938 15 226 8.0 9.7 0.00 0.79 0.79 94 1005.2
20260507022435 15 116 0.0 3.2 0.00 0.79 0.79 94 1005.6
20260507021930 15 218 3.2 4.8 0.00 0.79 0.79 94 1005.3
20260507021425 15 157 3.2 6.4 0.00 0.79 0.79 94 1005.5
20260507020924 15 224 1.6 4.8 0.00 0.79 0.79 94 1005.2
20260507020420 15 136 0.0 4.8 0.00 0.79 0.79 94 1005.3
20260507015917 15 301 0.0 3.2 0.00 0.79 0.79 94 1005.7
20260507015415 15 186 3.2 3.2 0.00 0.79 0.79 94 1005.7
20260507014912 15 197 0.0 4.8 0.00 0.79 0.79 94 1005.5
20260507014408 15 169 0.0 3.2 0.00 0.79 0.79 94 1005.8
20260507013904 15 223 3.2 4.8 0.00 0.79 0.79 94 1005.5
20260507013402 15 211 3.2 6.4 0.00 0.79 0.79 94 1005.8
20260507012859 15 180 4.8 6.4 0.00 0.79 0.79 94 1005.8
20260507012355 15 215 4.8 4.8 0.00 0.79 0.79 94 1005.8
20260507011853 15 198 3.2 3.2 0.00 0.79 0.79 94 1005.6
20260507011350 15 139 0.0 4.8 0.00 0.79 0.79 94 1005.8
20260507010849 15 218 3.2 8.0 0.00 0.79 0.79 94 1005.7
20260507010345 15 54 0.0 6.4 0.00 0.79 0.79 94 1005.7
20260507005842 15 243 1.6 8.0 0.00 0.79 0.79 94 1005.8
20260507005339 15 203 0.0 6.4 0.00 0.79 0.79 94 1005.9
20260507004836 15 176 3.2 6.4 0.00 0.79 0.79 94 1005.6
20260507004333 15 70 0.0 6.4 0.00 0.79 0.79 94 1005.7
20260507003830 15 127 3.2 6.4 0.00 0.79 0.79 94 1005.8
20260507003325 15 203 3.2 6.4 0.00 0.79 0.79 94 1005.6
20260507002820 15 190 3.2 4.8 0.00 0.79 0.79 94 1005.6
20260507002317 15 150 3.2 6.4 0.00 0.79 0.79 95 1005.6
20260507001815 15 223 6.4 8.0 0.00 0.79 0.79 95 1005.6
20260507001312 15 180 3.2 8.0 0.00 0.79 0.79 95 1005.6
20260507000808 15 161 0.0 4.8 0.00 0.79 0.79 95 1005.4
20260507000306 15 207 1.6 6.4 0.00 0.79 0.79 95 1005.7
20260506235800 15 191 4.8 6.4 0.05 0.79 0.79 95 1005.4
20260506235256 15 166 3.2 6.4 0.05 0.79 0.79 95 1005.5
20260506234753 15 184 4.8 6.4 0.00 0.76 0.76 95 1005.3
20260506234250 15 136 3.2 3.2 0.05 0.76 0.76 95 1005.3
20260506233748 15 188 3.2 4.8 0.13 0.76 0.76 95 1005.4
20260506233244 15 215 3.2 9.7 0.30 0.76 0.76 95 1005.6
20260506232741 15 198 3.2 6.4 0.36 0.74 0.74 95 1005.4
20260506232235 15 209 1.6 8.0 0.18 0.71 0.71 94 1005.2
20260506231733 15 247 3.2 3.2 0.05 0.69 0.69 94 1005.6
20260506231231 15 262 4.8 6.4 0.18 0.66 0.66 94 1005.7
20260506230728 15 200 4.8 4.8 0.18 0.66 0.66 94 1005.7
20260506230225 15 198 3.2 8.0 0.18 0.64 0.64 94 1005.9
20260506225721 15 167 1.6 3.2 0.23 0.61 0.61 94 1005.7
20260506225218 15 192 3.2 6.4 0.23 0.61 0.61 94 1005.5
20260506224714 15 199 1.6 6.4 0.23 0.58 0.58 94 1005.7
20260506224212 15 210 3.2 6.4 0.36 0.56 0.56 94 1005.9
20260506223708 15 180 0.0 6.4 0.23 0.53 0.53 94 1005.8
20260506223204 15 136 0.0 9.7 0.13 0.51 0.51 94 1005.9
20260506222701 15 192 3.2 6.4 0.13 0.48 0.48 94 1005.6
20260506222156 15 180 3.2 8.0 0.13 0.48 0.48 93 1005.6
20260506221655 15 177 3.2 6.4 0.05 0.46 0.46 93 1006.0
20260506221153 15 195 4.8 6.4 0.00 0.46 0.46 92 1006.0
20260506220649 15 202 3.2 11.3 0.00 0.46 0.46 92 1006.1
20260506220144 15 273 3.2 9.7 0.00 0.46 0.46 93 1006.3
20260506215641 15 224 0.0 6.4 0.00 0.46 0.46 93 1005.9